Location: Unspecified
(0.0000°N, 0.0000°E)
Time: 22:02:55
(UTC+00:00)

Daily predictions for brighter satellites

Satellite Brightness Start Highest point End
(mag) Time Altitude Azimuth Time Altitude Azimuth Time Altitude Azimuth
ARIANE 5 R/B 3.6 17:02:22 10° W 17:06:46 86° N 17:37:46 10° E
ATLAS 2A CENTAUR R/B 4.3 18:14:03 10° W 18:18:42 51° SSW 18:40:32 10° SE
Cosmos 1633 2.7 18:20:20 10° N 18:23:50 50° E 18:27:24 10° SSE
Cosmos 1459 Rocket 4.2 18:18:05 10° NNE 18:24:04 49° E 18:30:00 10° SSE
Helios 1B rocket 3.9 18:20:18 10° N 18:24:11 42° WNW 18:28:05 10° SSW
Cosmos 1400 Rocket 3.9 18:21:23 10° NNE 18:24:34 24° E 18:27:49 10° SE
ATLAS 3B R/B 4.4 18:23:58 10° SE 18:25:57 11° ESE 18:27:57 10° E
Ariane H10-3 3.1 18:23:03 10° W 18:26:33 76° S 18:44:05 10° E
IDEFIX/ARIANE 42P 2.5 18:24:27 10° SSE 18:29:40 79° ENE 18:34:51 10° N
Cosmos 1025 Rocket 4.3 18:26:32 10° SE 18:29:48 20° E 18:33:04 10° NE
Cosmos 2123 Rocket 4.0 18:23:48 10° S 18:29:59 73° E 18:36:07 10° N
Okean 1-7 Rocket 3.6 18:26:14 10° S 18:30:39 64° E 18:35:00 10° NNE
Cosmos 1536 3.0 18:27:15 10° N 18:31:18 78° W 18:35:20 10° S
GPS 2-17 Rocket1 4.1 18:27:32 10° W 18:31:41 42° NNW 18:35:55 10° NE
Meteor 1-28 Rocket 3.1 18:28:54 10° NNE 18:32:37 81° E 18:36:21 10° S
Resurs 01 Rocket 2.9 18:31:31 10° SE 18:35:00 23° ENE 18:38:29 10° NNE
Cosmos 2237 Rocket 4.0 18:31:07 10° SW 18:36:12 36° WNW 18:41:17 10° N
Cosmos 158 Rocket 4.0 18:32:44 10° SSW 18:37:39 80° WNW 18:42:39 10° N
Ariane H10+ 1.6 18:35:05 10° W 18:38:43 31° SSW 18:40:13 15° SE
Ariane H10 1.2 18:38:38 10° SW 18:39:36 19° S 18:39:40 19° SSE
Cosmos 2100 Rocket 4.0 18:33:53 10° N 18:40:13 81° E 18:46:36 10° S
SJ-6B 2.8 18:37:03 10° SSE 18:40:42 52° ENE 18:44:19 10° N
Cosmos 2016 Rocket 4.2 18:36:32 10° NNE 18:42:28 49° E 18:48:22 10° SSE
Sakura Rocket 2.6 18:39:02 10° WNW 18:42:37 77° SSW 18:45:42 16° SE
Delta 198 4.4 18:44:37 10° W 18:48:40 42° NNW 18:52:14 10° NE
ARIANE 5 R/B 2.1 18:49:27 10° NW 18:51:35 37° NNE 18:56:33 13° E
Ariane 42L R/B 4.1 18:35:50 10° W 18:53:09 48° SSW 18:56:11 19° SE
MSX 3.8 18:49:14 10° SSE 18:55:00 90° ENE 19:00:44 10° NNW
Helios 1A 2.9 18:51:11 10° SSE 18:55:21 66° ENE 18:59:31 10° N
Aureole 2 Rocket 3.2 18:53:21 10° S 18:57:35 46° ESE 19:01:34 10° NNE
Ariane H10 2.3 18:55:44 10° WNW 18:57:40 37° N 18:59:11 19° ENE
OAO 1 Rocket 4.4 18:52:47 10° SW 18:58:02 63° SE 19:03:17 10° ENE
CZ-2C R/B 4.2 18:53:38 10° SSW 18:58:17 34° WSW 19:02:52 10° NW
Cosmos 1452 Rocket 3.5 18:54:39 10° N 18:59:50 63° ENE 19:04:29 13° SSE
FREGAT/IRIS 2.6 19:01:20 20° SSE 19:03:24 72° E 19:06:33 10° N
SL-16 R/B 3.1 18:59:05 10° SSW 19:04:35 53° WNW 19:10:03 10° N
Cosmos 44 3.5 19:00:10 10° NNW 19:05:01 69° WSW 19:09:00 13° SSE
ARIANE 5 R/B 1.8 19:02:44 10° WNW 19:05:43 38° N 19:06:23 28° NE
Cosmos 2278 Rocket 4.0 19:04:26 10° NE 19:06:33 13° ENE 19:06:33 13° ENE
GPS 2-12 Rocket1 3.4 19:03:37 10° W 19:08:22 58° SSW 19:10:37 29° SE
Spot 2 Rocket 3.4 19:04:00 10° SSE 19:09:03 74° ENE 19:14:04 10° N
Delta 7925 Rocket 3.1 19:07:42 10° SW 19:12:39 63° SSE 19:14:45 31° E
SL-08 R/B 4.5 19:08:57 10° N 19:15:20 85° E 19:21:46 10° S
Cosmos 1484 Rocket 4.2 19:12:47 10° SSW 19:16:13 34° WSW 19:19:37 10° NW
OAO 2 Rocket 3.5 19:18:48 10° WNW 19:24:06 71° SW 19:26:02 39° SE
COSMOS 2455 2.7 19:19:08 10° S 19:25:04 65° ESE 19:30:59 10° NNE
Cosmos 1975 2.6 19:22:07 10° N 19:26:05 79° E 19:26:55 54° SSE
ARIANE DEB (SYLDA) 3.2 19:24:04 10° WNW 19:27:32 42° N 19:30:02 25° ENE
Meteor 1-23 Rocket 4.1 19:23:43 10° S 19:29:16 72° E 19:34:52 10° N
BLOCK DM-SL R/B 2.9 19:27:39 10° W 19:31:48 90° ESE 19:33:21 45° E
ARIANE 3 DEB 3.6 19:29:57 10° WSW 19:31:49 33° SSW 19:31:49 33° SSW
GPS 2-14 Rocket1 3.0 19:28:50 10° WSW 19:32:02 51° SSW 19:32:02 51° SSW
Cosmos 1603 3.6 19:27:59 10° SSW 19:33:40 89° ESE 19:39:17 10° NNE
ARIANE 5 R/B 3.7 19:30:49 10° W 19:34:26 67° S 19:39:17 33° ESE
Cosmos 2098 Rocket 3.5 19:30:42 10° N 19:35:18 58° E 19:35:58 54° ESE
H-2A R/B 2.6 19:19:01 10° SW 19:40:30 65° SSE 19:41:49 51° E
GPS 2-18 Rocket1 4.4 19:37:17 10° W 19:40:41 33° NNW 19:41:13 31° N
BLOCK DM-SL R/B 2.7 19:39:12 10° W 19:42:08 84° S 19:42:52 63° ESE
Cosmos 1420 Rocket 3.8 19:37:11 10° N 19:42:25 82° E 19:43:10 65° SSE
METEOR-M 4.1 19:40:24 40° S 19:42:27 86° W 19:47:47 10° NNW
ERBS 4.0 19:39:31 10° WNW 19:42:35 29° WSW 19:42:39 29° WSW
FengYun 1-2 T 4.1 19:41:29 52° SSE 19:42:50 77° ENE 19:48:19 10° N
Tiangong 1 3.6 19:40:36 10° NNW 19:41:33 17° N 19:41:33 17° N
Ariane H10 3.5 19:40:17 10° WNW 19:43:38 47° N 19:47:59 26° ENE
RESURS DK-1 3.0 19:41:51 10° NNW 19:45:50 51° WSW 19:46:11 49° SW
ALOS 3.8 19:48:07 25° NNE 19:48:07 25° NNE 19:50:17 10° N
Meteor 2-4 Rocket 3.9 19:41:07 10° SSW 19:46:46 71° W 19:52:33 10° N
ARIANE 44L R/B 4.0 19:44:30 10° WNW 19:46:14 20° NNW 19:46:14 20° NNW
deb Chang Zheng 4 4.2 19:52:55 10° N 19:56:19 50° NNW 19:56:19 50° NNW
Cosmos 967 Rocket 4.5 19:57:07 10° NNW 20:03:24 74° WSW 20:04:11 66° SSW
SEDSat Delta rocket 4.4 19:59:19 10° SW 20:02:19 37° SW 20:02:19 37° SW
Cosmos 1844 Rocket 3.5 20:03:45 10° NNW 20:09:05 46° WSW 20:10:00 43° SW
Resurs 01 Rocket 4.3 20:08:34 10° SW 20:11:12 15° WSW 20:13:49 10° WNW
ATLAS 3B R/B 2.9 20:08:57 10° SSW 20:16:29 80° WNW 20:24:11 10° NNE
Cosmos 1844 4.2 20:11:29 10° NNW 20:16:52 57° W 20:16:52 57° W
Cosmos 2278 Rocket 4.0 20:45:38 10° NW 20:48:27 27° NW 20:48:27 27° NW
ATLAS 3B CENTAUR R/B 4.4 21:23:15 10° WNW 21:26:10 36° WNW 21:26:10 36° WNW
